Location: Pittman
(37.9557°N, 80.9209°W)
Time: 15:12:26
(UTC+00:00)

Envisat - Pass Details

Date: 25 April 2026
Orbit: 761 x 762 km, 98.4° (Epoch: 15 May)

Event Time Altitude Azimuth Distance (km) Brightness Sun altitude
Rises 06:41:36 0° 34° (NE) 3,228 7.2 -35.5°
Reaches altitude 10° 06:45:02 10° 59° (ENE) 2,296 6.0 -35.2°
Enters shadow 06:47:25 14° 87° (E) 2,008 5.4 -35.0°
